Location: Melbourne
(37.8170°S, 144.9670°E)
Time: 07:38:26
(UTC+11:00)

ISS - Visible Passes

Search period start: 14 December 2017 00:00
Search period end: 24 December 2017 00:00
Orbit: 403 x 407 km, 51.6° (Epoch: 14 December)

Date Brightness Start Highest point End Pass type
(mag) Time Alt. Az. Time Alt. Az. Time Alt. Az.
14 Dec -0.6 01:35:48 13° SE 01:35:48 13° SE 01:36:12 10° SE visible
14 Dec -0.9 03:08:26 10° SW 03:09:56 13° SSW 03:11:34 10° S visible
15 Dec -1.1 02:17:43 18° SSW 02:17:43 18° SSW 02:19:50 10° SSE visible
16 Dec -0.8 01:26:54 17° SSE 01:26:54 17° SSE 01:27:57 10° SSE visible
17 Dec -0.6 02:08:34 10° SW 02:09:49 12° SSW 02:11:06 10° S visible
18 Dec -0.8 01:17:22 16° SSW 01:17:22 16° SSW 01:19:26 10° SSE visible
18 Dec -0.4 04:31:22 10° S 04:32:43 12° SSE 04:34:03 10° SE visible
19 Dec -1.1 00:25:42 21° S 00:25:42 21° S 00:27:33 10° SSE visible
19 Dec -1.4 05:14:31 10° SSW 05:17:29 28° SSE 05:20:24 10° E visible
19 Dec -2.4 23:32:14 38° SW 23:32:22 38° SW 23:35:32 10° SE visible
20 Dec -0.2 01:08:47 10° SSW 01:09:36 11° SSW 01:10:25 10° S visible
20 Dec -0.7 04:22:34 10° SSW 04:25:01 18° SSE 04:27:25 10° ESE visible
20 Dec -3.7 22:36:44 10° NW 22:40:02 75° SW 22:43:22 10° SE visible
21 Dec -0.5 00:15:07 10° SW 00:17:00 14° SSW 00:18:53 10° SSE visible
21 Dec -0.4 03:30:46 10° S 03:32:27 13° SSE 03:34:08 10° SE visible
21 Dec -3.2 05:06:10 10° SW 05:09:29 63° SE 05:12:46 10° ENE visible
21 Dec -3.7 21:44:33 10° NNW 21:47:46 52° NE 21:51:01 10° ESE visible
21 Dec -1.0 23:21:53 10° WSW 23:24:27 20° SSW 23:27:01 10° SSE visible
22 Dec 0.0 02:39:35 10° S 02:39:48 10° SSE 02:40:03 10° SSE visible
22 Dec -1.9 04:14:01 10° SW 04:17:06 33° SSE 04:20:09 10° E visible
22 Dec -1.8 22:28:56 10° W 22:31:57 32° SSW 22:35:00 10° SSE visible
23 Dec -1.0 03:21:59 10° SSW 03:24:37 21° SSE 03:27:15 10° E visible
23 Dec -3.6 04:58:02 10° WSW 05:01:17 47° NW 05:04:27 10° NNE visible
23 Dec -3.1 21:36:17 10° WNW 21:39:33 58° SW 21:42:51 10° SE visible
23 Dec -0.3 23:15:01 10° SW 23:16:37 13° SSW 23:18:11 10° S visible
